COSMOS 1275 DEB

Satellite information

Favourite Embed

Satellite Type and Status

DEBRISIN ORBIT

Key statistics

Satellite COSMOS 1275 DEB at a glance.

Uptime

16212

Days in orbit

Revolutions

≈ 14.2

Per day

Orbit

LEO

Low Earth Orbit

Inclination

82.8

Latest

Satellite identification and parameters

Extended collection of information and parameters for COSMOS 1275 DEB.

Object identification

Identified? True

Debris? True

Object name: COSMOS 1275 DEB

International designator: 1981-053UB

Object number (NORAD): 42211

Object ID (CCSDS): 42211

Country: COMMONWEALTH OF INDEPENDENT STATES (CIS)

Current information (Y/N): Y

RCS size: SMALL

Orbital parameters

Period: 101.289 minutes

Inclination: 82.837 deg

SMA: 7197.853 km

Apoapsis: 847.656 km

Periapsis: 791.78 km

RAAN: 238.3323 deg

Eccentricy: 0.00388143

Argument of periapsis: 250.0171 deg

Mean anomaly: 109.6829 deg

Mean motion: 14.21668277 rev/day

Mean motion (dot): 0.0000786 rev/day2

B* drag term: 0.0035455352 1/REarth

Two-line elements (TLE)

Creation date: Oct. 20, 2025, 2:10 a.m.

Reference frame: TEME

Reference center: EARTH

Epoch: Oct. 19, 2025, 2:34 p.m. UTC

TLE line 0: 0 COSMOS 1275 DEB

TLE line 1: 1 42211U 81053UB 25292.60759037 .00007860 00000-0 35455-2 0 9999

TLE line 2: 2 42211 82.8370 238.3323 0038814 250.0171 109.6829 14.21668277 69367

Live tracking on map

Real-time ground track for satellite COSMOS 1275 DEB.

In-orbit conjunctions

A list of the most updated potential collisions computed for object COSMOS 1275 DEB.

Target Orbit TCA Probability of collision Miss distance Type
CZ-6A DEB LEO 2024-11-16 10:27:40 0.0001382344 669.0 (m) DEBRIS
FENGYUN 1C DEB SSO 2024-11-09 00:57:10 0.0001413062 845.0 (m) DEBRIS
BPA-2/SL-24 R/B SSO 2024-08-11 14:38:49 0.0001367427 325.0 (m) ROCKET BODY

Associated space launch

Navigation satellite providing location information for the Tsiklon-B navigation system

COSMOS 1275 DEB was lifted into orbit during the mission ‘Kosmos-3M | Parus 27’, on board a Kosmos-3M space rocket.

The launch took place on June 4, 1981, 3:41 p.m. from 132/2.

For more information about the launch, click the button.

Launch to space Kosmos-3M | Parus 27
Kosmos-3M | Parus 27

Agency: N/A

Status: Launch Successful

Launch date: June 4, 1981, 3:41 p.m. UTC

Rocket: Kosmos-3M

Launch pad: 132/2

Location: Plesetsk Cosmodrome, Russian Federation

...

Latest news about this satellite

There are no fresh news available about this satellite. Check back as we update our databases every day.


Newsletter sign-up

Weekly statistics, charts and insights to help you stay on top of the space industry.